Location: Ottobeuren
(47.9410°N, 10.3007°E)
Time: 10:30:36
(UTC+01:00)

BlueWalker 3 - Pass Details

Date: 09 December 2025
Orbit: 451 x 463 km, 53.2° (Epoch: 18 January)

Event Time Altitude Azimuth Distance (km) Brightness Sun altitude
Rises 18:27:20 0° 289° (WNW) 2,497 6.5 -19.4°
Reaches altitude 10° 18:30:02 10° 268° (W) 1,618 5.7 -19.8°
Maximum altitude 18:32:25 17° 227° (SW) 1,259 4.7 -20.2°
Drops below altitude 10° 18:34:48 10° 186° (S) 1,611 4.7 -20.6°
Sets 18:37:29 0° 165° (SSE) 2,481 5.4 -21.0°
Enters shadow 18:37:42 -1° 164° (SSE) 2,560 5.5 -21.1°
